User: anonymous   Login
Location: Unspecified
(0.0000°N, 0.0000°E)
Time: 00:47:29
(UTC+00:00)
Language:

ORS OBJECT Z - Orbit

View from above orbital plane
View from above orbital plane
View from above satellite
View from above satellite

Ground track
Ground track

The orbit data is extracted from the following two-line orbital elements,

1 39403U 13064Z   21022.91011378  .00022290  00000-0  15485-3 0  9991
2 39403  40.5161 230.0118 0004916 312.2220  47.8190 15.73794241402766
Epoch (UTC): 22 January 2021 21:50:33
Eccentricity: 0.0004916
inclination: 40.5161°
perigee height: 345 km
apogee height: 351 km
right ascension of ascending node: 230.0118°
argument of perigee: 312.2220°
revolutions per day: 15.73794241
mean anomaly at epoch: 47.8190°
orbit number at epoch: 40276

The dashed part of the orbit path shows where the satellite is in the earth's shadow,  

DLR